• In Netherlands
  • List of Countries
  • For 7 days
  • Water Temperature
  • Satellite Maps
  • Weather Map
  • Weather Widgets
  • user-avatar
    Login

    Hourly Weather Uige

    Today, 26 February, Sunday

    Time Temperature Precipitation Wind Pressure Humidity
    00:00 +21°C° 0 mm 1 mps 691 mmHg 94%
    01:00 +21°C° 0 mm 1 mps 691 mmHg 97%
    02:00 +21°C° 0 mm 1 mps 691 mmHg 97%
    03:00 +21°C° 0 mm 1 mps 690 mmHg 98%
    04:00 +21°C° 0 mm 1 mps 690 mmHg 98%
    05:00 +21°C° 0 mm 1 mps 691 mmHg 97%
    06:00 +22°C° 0 mm 1 mps 691 mmHg 95%
    07:00 +22°C° 0 mm 1 mps 691 mmHg 94%
    08:00 +25°C° 0 mm 1 mps 691 mmHg 82%
    09:00 +27°C° 0 mm 1 mps 692 mmHg 70%
    10:00 +29°C° 0 mm 1 mps 692 mmHg 57%
    11:00 +31°C° 0 mm 1 mps 691 mmHg 52%
    12:00 +32°C° 0 mm 1 mps 691 mmHg 46%
    13:00 +33°C° 0 mm 1 mps 691 mmHg 47%
    14:00 +31°C° 0.7 mm 2 mps 690 mmHg 55%
    15:00 +30°C° 0.7 mm 2 mps 689 mmHg 63%
    16:00 +29°C° 0.7 mm 2 mps 689 mmHg 71%
    17:00 +27°C° 0.4 mm 2 mps 689 mmHg 78%
    18:00 +25°C° 0.4 mm 2 mps 689 mmHg 85%
    19:00 +23°C° 0.4 mm 1 mps 689 mmHg 92%
    20:00 +23°C° 0.1 mm 1 mps 689 mmHg 94%
    21:00 +22°C° 0.1 mm 1 mps 689 mmHg 95%
    22:00 +22°C° 0.1 mm 1 mps 690 mmHg 97%
    23:00 +22°C° 0 mm 1 mps 690 mmHg 97%

    Tomorrow, 27 February, Monday

    Time Temperature Precipitation Wind Pressure Humidity
    00:00 +21°C° 0 mm 1 mps 690 mmHg 97%
    01:00 +21°C° 0 mm 1 mps 689 mmHg 98%
    02:00 +21°C° 0 mm 1 mps 689 mmHg 98%
    03:00 +19°C° 0 mm 0 mps 689 mmHg 98%
    04:00 +18°C° 0 mm 0 mps 689 mmHg 98%
    05:00 +19°C° 0.2 mm 0 mps 689 mmHg 97%
    06:00 +20°C° 0.2 mm 0 mps 690 mmHg 95%
    07:00 +20°C° 0.2 mm 0 mps 690 mmHg 94%
    08:00 +23°C° 0.1 mm 0 mps 690 mmHg 85%
    09:00 +27°C° 0.1 mm 1 mps 691 mmHg 76%
    10:00 +29°C° 0.1 mm 1 mps 691 mmHg 67%
    11:00 +30°C° 0.3 mm 1 mps 691 mmHg 62%
    12:00 +31°C° 0.3 mm 1 mps 690 mmHg 58%
    13:00 +31°C° 0.3 mm 2 mps 690 mmHg 54%
    14:00 +31°C° 0.2 mm 2 mps 689 mmHg 55%
    15:00 +31°C° 0.2 mm 2 mps 688 mmHg 56%
    16:00 +30°C° 0.2 mm 2 mps 688 mmHg 58%
    17:00 +28°C° 0.2 mm 2 mps 688 mmHg 65%
    18:00 +26°C° 0.2 mm 1 mps 688 mmHg 73%
    19:00 +24°C° 0.2 mm 1 mps 688 mmHg 81%
    20:00 +24°C° 0.1 mm 1 mps 689 mmHg 84%
    21:00 +23°C° 0.1 mm 1 mps 689 mmHg 86%
    22:00 +23°C° 0.1 mm 1 mps 690 mmHg 89%
    23:00 +22°C° 0.2 mm 1 mps 690 mmHg 92%

    Day after tomorrow, 28 February, Tuesday

    Time Temperature Precipitation Wind Pressure Humidity
    00:00 +22°C° 0.2 mm 1 mps 690 mmHg 95%
    01:00 +21°C° 0.2 mm 1 mps 689 mmHg 98%
    02:00 +21°C° 0.1 mm 1 mps 689 mmHg 98%
    03:00 +21°C° 0.1 mm 1 mps 689 mmHg 98%
    04:00 +21°C° 0.1 mm 1 mps 689 mmHg 98%
    05:00 +21°C° 0 mm 1 mps 690 mmHg 97%
    06:00 +21°C° 0 mm 1 mps 690 mmHg 96%
    07:00 +21°C° 0 mm 1 mps 690 mmHg 95%
    08:00 +23°C° 0 mm 1 mps 691 mmHg 86%
    09:00 +25°C° 0 mm 1 mps 692 mmHg 77%
    10:00 +27°C° 0 mm 1 mps 692 mmHg 67%
    11:00 +29°C° 0.1 mm 1 mps 692 mmHg 61%
    12:00 +30°C° 0.1 mm 2 mps 691 mmHg 55%
    13:00 +31°C° 0.1 mm 2 mps 691 mmHg 49%
    14:00 +31°C° 0.1 mm 2 mps 690 mmHg 50%
    15:00 +31°C° 0.1 mm 2 mps 689 mmHg 51%
    16:00 +30°C° 0.1 mm 2 mps 689 mmHg 52%
    17:00 +28°C° 0 mm 2 mps 689 mmHg 61%
    18:00 +26°C° 0 mm 2 mps 689 mmHg 69%
    19:00 +23°C° 0 mm 1 mps 689 mmHg 78%
    20:00 +23°C° 0 mm 1 mps 689 mmHg 81%
    21:00 +22°C° 0 mm 1 mps 690 mmHg 85%
    22:00 +21°C° 0 mm 1 mps 690 mmHg 88%
    23:00 +21°C° 0 mm 1 mps 690 mmHg 91%

    1 March, Wednesday

    Time Temperature Precipitation Wind Pressure Humidity
    00:00 +20°C° 0 mm 1 mps 690 mmHg 93%
    01:00 +20°C° 0 mm 1 mps 689 mmHg 96%
    02:00 +20°C° 0 mm 1 mps 689 mmHg 96%
    03:00 +19°C° 0 mm 1 mps 689 mmHg 97%
    04:00 +19°C° 0 mm 1 mps 689 mmHg 98%
    05:00 +19°C° 0 mm 1 mps 689 mmHg 96%
    06:00 +20°C° 0 mm 1 mps 690 mmHg 95%
    07:00 +20°C° 0 mm 1 mps 690 mmHg 93%
    08:00 +23°C° 0 mm 1 mps 691 mmHg 79%
    09:00 +26°C° 0 mm 1 mps 692 mmHg 64%
    10:00 +29°C° 0 mm 1 mps 692 mmHg 50%
    11:00 +30°C° 0 mm 1 mps 692 mmHg 45%
    12:00 +31°C° 0 mm 2 mps 691 mmHg 40%
    13:00 +34°C° 0 mm 2 mps 691 mmHg 35%
    14:00 +32°C° 0 mm 2 mps 690 mmHg 36%
    15:00 +32°C° 0 mm 2 mps 690 mmHg 38%
    16:00 +32°C° 0 mm 2 mps 689 mmHg 40%
    17:00 +29°C° 0.1 mm 2 mps 689 mmHg 49%
    18:00 +26°C° 0.1 mm 2 mps 690 mmHg 58%
    19:00 +24°C° 0.1 mm 2 mps 690 mmHg 68%
    20:00 +23°C° 0 mm 1 mps 690 mmHg 74%
    21:00 +22°C° 0 mm 1 mps 691 mmHg 80%
    22:00 +21°C° 0 mm 1 mps 692 mmHg 87%
    23:00 +21°C° 0 mm 1 mps 691 mmHg 90%

    2 March, Thursday

    Time Temperature Precipitation Wind Pressure Humidity
    00:00 +20°C° 0 mm 1 mps 691 mmHg 93%
    01:00 +19°C° 0 mm 1 mps 690 mmHg 96%
    02:00 +19°C° 0 mm 1 mps 690 mmHg 97%
    03:00 +19°C° 0 mm 1 mps 689 mmHg 97%
    04:00 +18°C° 0 mm 1 mps 689 mmHg 98%
    05:00 +19°C° 0 mm 1 mps 690 mmHg 96%
    06:00 +20°C° 0 mm 1 mps 690 mmHg 95%
    07:00 +20°C° 0 mm 1 mps 691 mmHg 93%
    08:00 +24°C° 0 mm 1 mps 692 mmHg 79%
    09:00 +27°C° 0 mm 1 mps 692 mmHg 64%
    10:00 +30°C° 0 mm 1 mps 693 mmHg 49%
    11:00 +31°C° 0 mm 2 mps 692 mmHg 44%
    12:00 +32°C° 0 mm 2 mps 692 mmHg 39%
    13:00 +35°C° 0 mm 2 mps 691 mmHg 34%
    14:00 +34°C° 0.1 mm 2 mps 690 mmHg 36%
    15:00 +34°C° 0.1 mm 2 mps 690 mmHg 38%
    16:00 +32°C° 0.1 mm 2 mps 689 mmHg 41%
    17:00 +30°C° 0.1 mm 2 mps 690 mmHg 50%
    18:00 +27°C° 0.1 mm 2 mps 690 mmHg 59%
    19:00 +25°C° 0.1 mm 1 mps 690 mmHg 68%
    20:00 +24°C° 0.2 mm 1 mps 690 mmHg 73%
    21:00 +23°C° 0.2 mm 1 mps 690 mmHg 78%
    22:00 +22°C° 0.2 mm 1 mps 691 mmHg 83%
    23:00 +21°C° 0 mm 1 mps 690 mmHg 84%

    3 March, Friday

    Time Temperature Precipitation Wind Pressure Humidity
    00:00 +21°C° 0 mm 1 mps 690 mmHg 86%
    01:00 +20°C° 0 mm 1 mps 689 mmHg 87%
    02:00 +20°C° 0 mm 1 mps 689 mmHg 88%
    03:00 +20°C° 0 mm 1 mps 689 mmHg 89%
    04:00 +20°C° 0 mm 1 mps 689 mmHg 90%
    05:00 +20°C° 0 mm 1 mps 689 mmHg 89%
    06:00 +20°C° 0 mm 1 mps 690 mmHg 89%
    07:00 +21°C° 0 mm 1 mps 690 mmHg 88%
    08:00 +23°C° 0 mm 1 mps 690 mmHg 76%
    09:00 +26°C° 0 mm 1 mps 691 mmHg 63%
    10:00 +29°C° 0 mm 1 mps 692 mmHg 51%
    11:00 +30°C° 0 mm 1 mps 691 mmHg 47%
    12:00 +31°C° 0 mm 1 mps 691 mmHg 42%
    13:00 +32°C° 0 mm 2 mps 690 mmHg 38%
    14:00 +32°C° 0 mm 2 mps 689 mmHg 40%
    15:00 +32°C° 0 mm 2 mps 689 mmHg 42%
    16:00 +31°C° 0 mm 2 mps 688 mmHg 44%
    17:00 +29°C° 0 mm 2 mps 688 mmHg 53%
    18:00 +26°C° 0 mm 1 mps 688 mmHg 62%
    19:00 +23°C° 0 mm 1 mps 688 mmHg 72%
    20:00 +22°C° 0 mm 1 mps 688 mmHg 74%
    21:00 +22°C° 0 mm 1 mps 689 mmHg 75%
    22:00 +21°C° 0 mm 1 mps 689 mmHg 77%
    23:00 +21°C° 0 mm 1 mps 689 mmHg 81%
    Show more